| time (UTC) | temp C | wind direction | speed KPH | gust KPH | rain 1hr cm | rain 24hr cm | rain mn cm | humidity % | barometer mb |
| 20260502213342 | 24 | 325 | 6.4 | 17.7 | 0.00 | 1.45 | 0.00 | 53 | 1019.1 |
| 20260502212345 | 24 | 340 | 8.0 | 19.3 | 0.00 | 1.45 | 0.00 | 53 | 1019.1 |
| 20260502211349 | 23 | 7 | 8.0 | 16.1 | 0.00 | 1.45 | 0.00 | 52 | 1019.2 |
| 20260502210355 | 23 | 340 | 8.0 | 20.9 | 0.00 | 1.45 | 0.00 | 53 | 1019.4 |
| 20260502205343 | 23 | 45 | 6.4 | 20.9 | 0.00 | 2.03 | 0.00 | 51 | 1019.4 |
| 20260502204331 | 23 | 25 | 9.7 | 22.5 | 0.00 | 2.03 | 0.00 | 51 | 1019.5 |
| 20260502203335 | 23 | 48 | 4.8 | 16.1 | 0.00 | 2.03 | 0.00 | 53 | 1019.7 |
| 20260502202340 | 23 | 340 | 9.7 | 20.9 | 0.00 | 2.03 | 0.00 | 52 | 1019.9 |
| 20260502201344 | 23 | 43 | 11.3 | 19.3 | 0.00 | 2.03 | 0.00 | 51 | 1019.9 |
| 20260502200348 | 23 | 331 | 6.4 | 17.7 | 0.00 | 2.03 | 0.00 | 53 | 1020.1 |
| 20260502195332 | 23 | 16 | 8.0 | 20.9 | 0.00 | 2.31 | 0.00 | 51 | 1020.3 |
| 20260502194334 | 23 | 340 | 8.0 | 19.3 | 0.00 | 2.31 | 0.00 | 52 | 1020.4 |
| 20260502193337 | 23 | 43 | 6.4 | 14.5 | 0.00 | 2.31 | 0.00 | 54 | 1020.4 |
| 20260502192402 | 23 | 354 | 4.8 | 16.1 | 0.00 | 2.31 | 0.00 | 52 | 1020.6 |
| 20260502191326 | 23 | 324 | 4.8 | 24.1 | 0.00 | 2.31 | 0.00 | 53 | 1020.6 |
| 20260502190329 | 23 | 327 | 8.0 | 19.3 | 0.00 | 2.31 | 0.00 | 51 | 1020.7 |
| 20260502185332 | 23 | 355 | 3.2 | 22.5 | 0.00 | 2.64 | 0.00 | 56 | 1020.9 |
| 20260502184333 | 23 | 17 | 9.7 | 19.3 | 0.00 | 2.64 | 0.00 | 55 | 1020.9 |
| 20260502183338 | 23 | 350 | 6.4 | 22.5 | 0.00 | 2.64 | 0.00 | 53 | 1021.1 |
| 20260502182326 | 23 | 340 | 9.7 | 17.7 | 0.00 | 2.64 | 0.00 | 54 | 1021.2 |
| 20260502181331 | 23 | 359 | 6.4 | 24.1 | 0.00 | 2.64 | 0.00 | 52 | 1021.2 |
| 20260502180335 | 23 | 323 | 3.2 | 16.1 | 0.00 | 2.64 | 0.00 | 55 | 1021.5 |
| 20260502170402 | 21 | 49 | 8.0 | 22.5 | 0.00 | 2.90 | 0.00 | 60 | 1021.9 |
| 20260502164329 | 21 | 317 | 1.6 | 22.5 | 0.00 | 3.20 | 0.00 | 64 | 1022.0 |
| 20260502163333 | 20 | 333 | 8.0 | 20.9 | 0.00 | 3.20 | 0.00 | 66 | 1021.9 |
| 20260502162343 | 20 | 11 | 11.3 | 19.3 | 0.00 | 3.20 | 0.00 | 66 | 1022.0 |
| 20260502161327 | 19 | 40 | 6.4 | 17.7 | 0.00 | 3.20 | 0.00 | 69 | 1021.9 |
| 20260502160331 | 18 | 302 | 11.3 | 20.9 | 0.00 | 3.20 | 0.00 | 72 | 1021.9 |
| 20260502152330 | 17 | 308 | 6.4 | 17.7 | 0.00 | 3.81 | 0.00 | 76 | 1021.6 |
| 20260502151335 | 17 | 27 | 4.8 | 25.7 | 0.00 | 3.81 | 0.00 | 76 | 1021.5 |
| 20260502150359 | 17 | 350 | 9.7 | 20.9 | 0.00 | 3.81 | 0.00 | 77 | 1021.5 |
| 20260502130343 | 12 | 322 | 6.4 | 16.1 | 0.00 | 4.85 | 0.00 | 93 | 1020.3 |
| 20260502123328 | 12 | 280 | 4.8 | 14.5 | 0.00 | 5.38 | 0.00 | 93 | 1019.8 |
| 20260502122334 | 11 | 265 | 3.2 | 9.7 | 0.00 | 5.38 | 0.00 | 93 | 1019.7 |
| 20260502121341 | 11 | 317 | 3.2 | 8.0 | 0.00 | 5.38 | 0.00 | 93 | 1019.5 |
| 20260502120329 | 11 | 299 | 3.2 | 8.0 | 0.00 | 5.38 | 0.00 | 93 | 1019.5 |
| 20260502115332 | 11 | 322 | 4.8 | 12.9 | 0.00 | 5.74 | 0.00 | 93 | 1019.4 |
| 20260502114338 | 11 | 316 | 3.2 | 6.4 | 0.00 | 5.74 | 0.00 | 93 | 1019.4 |
| 20260502113325 | 11 | 350 | 1.6 | 8.0 | 0.00 | 5.74 | 0.00 | 93 | 1019.3 |
| 20260502112330 | 11 | 331 | 1.6 | 8.0 | 0.00 | 5.74 | 0.00 | 93 | 1019.1 |
| 20260502111356 | 11 | 4 | 3.2 | 9.7 | 0.00 | 5.74 | 0.00 | 93 | 1018.8 |
| 20260502110338 | 11 | 325 | 4.8 | 9.7 | 0.00 | 5.74 | 0.00 | 93 | 1018.7 |
| 20260502105327 | 11 | 323 | 3.2 | 11.3 | 0.00 | 6.07 | 0.00 | 93 | 1018.5 |
| 20260502104332 | 12 | 345 | 4.8 | 12.9 | 0.00 | 6.07 | 0.00 | 93 | 1018.6 |
| 20260502103337 | 12 | 354 | 3.2 | 12.9 | 0.00 | 6.07 | 0.00 | 93 | 1018.4 |
| 20260502102340 | 12 | 12 | 3.2 | 12.9 | 0.00 | 6.07 | 0.00 | 93 | 1018.5 |
| 20260502101344 | 12 | 2 | 4.8 | 14.5 | 0.00 | 6.07 | 0.00 | 93 | 1018.3 |
| 20260502091343 | 12 | 345 | 3.2 | 8.0 | 0.00 | 6.25 | 0.00 | 91 | 1017.1 |
| 20260502090329 | 13 | 40 | 4.8 | 9.7 | 0.00 | 6.25 | 0.00 | 91 | 1017.0 |
| 20260502071329 | 13 | 19 | 6.4 | 17.7 | 0.00 | 8.41 | 0.00 | 92 | 1016.6 |
| 20260502070334 | 13 | 64 | 3.2 | 11.3 | 0.00 | 8.41 | 0.00 | 92 | 1016.7 |
| 20260502065336 | 13 | 39 | 6.4 | 16.1 | 0.00 | 8.46 | 0.00 | 92 | 1016.7 |
| 20260502064402 | 13 | 358 | 3.2 | 16.1 | 0.00 | 8.46 | 0.00 | 93 | 1016.7 |
| 20260502063331 | 13 | 340 | 6.4 | 16.1 | 0.00 | 8.46 | 0.00 | 93 | 1016.8 |
| 20260502062336 | 13 | 15 | 6.4 | 20.9 | 0.00 | 8.46 | 0.00 | 93 | 1016.9 |
| 20260502061339 | 13 | 8 | 3.2 | 16.1 | 0.00 | 8.46 | 0.00 | 93 | 1016.7 |
| 20260502060325 | 13 | 38 | 9.7 | 17.7 | 0.00 | 8.46 | 0.00 | 93 | 1016.7 |
| 20260502055328 | 13 | 13 | 8.0 | 17.7 | 0.00 | 8.53 | 0.00 | 93 | 1016.7 |
| 20260502054333 | 13 | 306 | 9.7 | 25.7 | 0.00 | 8.53 | 0.00 | 93 | 1016.8 |
| 20260502053338 | 13 | 340 | 8.0 | 24.1 | 0.00 | 8.53 | 0.00 | 93 | 1016.7 |
| 20260502052343 | 13 | 21 | 8.0 | 25.7 | 0.00 | 8.53 | 0.00 | 94 | 1016.7 |
| 20260502051327 | 13 | 345 | 6.4 | 22.5 | 0.00 | 8.53 | 0.00 | 94 | 1016.7 |
| 20260502050331 | 13 | 20 | 8.0 | 22.5 | 0.00 | 8.53 | 0.00 | 94 | 1016.5 |
| 20260502045357 | 13 | 17 | 9.7 | 17.7 | 0.00 | 9.02 | 8.53 | 94 | 1016.4 |
| 20260502044325 | 13 | 350 | 8.0 | 17.7 | 0.00 | 9.02 | 8.53 | 94 | 1016.3 |
| 20260502043329 | 13 | 38 | 8.0 | 22.5 | 0.00 | 9.02 | 8.53 | 94 | 1016.2 |
| 20260502042334 | 13 | 2 | 9.7 | 20.9 | 0.00 | 9.02 | 8.53 | 94 | 1016.2 |
| 20260502041343 | 13 | 360 | 6.4 | 24.1 | 0.00 | 9.02 | 8.53 | 94 | 1016.3 |
| 20260502040330 | 13 | 356 | 6.4 | 17.7 | 0.00 | 9.02 | 8.53 | 94 | 1016.4 |
| 20260502035336 | 13 | 10 | 4.8 | 20.9 | 0.00 | 9.02 | 8.53 | 94 | 1016.2 |
| 20260502034324 | 13 | 360 | 6.4 | 22.5 | 0.00 | 9.02 | 8.53 | 94 | 1016.0 |
| 20260502033327 | 13 | 345 | 4.8 | 16.1 | 0.00 | 9.02 | 8.53 | 94 | 1016.1 |
| 20260502032332 | 13 | 350 | 4.8 | 19.3 | 0.00 | 9.02 | 8.53 | 94 | 1016.2 |
| 20260502031339 | 13 | 345 | 6.4 | 19.3 | 0.00 | 9.02 | 8.53 | 94 | 1016.1 |
| 20260502030345 | 13 | 358 | 6.4 | 19.3 | 0.00 | 9.02 | 8.53 | 94 | 1016.0 |
| 20260502025401 | 13 | 55 | 4.8 | 20.9 | 0.00 | 9.02 | 8.53 | 95 | 1015.9 |
| 20260502024325 | 13 | 8 | 6.4 | 22.5 | 0.00 | 9.02 | 8.53 | 95 | 1015.6 |
| 20260502023330 | 13 | 27 | 6.4 | 22.5 | 0.03 | 9.02 | 8.53 | 94 | 1015.4 |
| 20260502022334 | 13 | 17 | 9.7 | 27.4 | 0.03 | 9.02 | 8.53 | 94 | 1015.0 |
| 20260502021337 | 13 | 4 | 9.7 | 27.4 | 0.05 | 9.02 | 8.53 | 94 | 1014.4 |
| 20260502020342 | 14 | 8 | 8.0 | 22.5 | 0.08 | 9.02 | 8.53 | 95 | 1014.2 |
| 20260502015327 | 14 | 356 | 6.4 | 20.9 | 0.10 | 9.02 | 8.53 | 94 | 1014.2 |
| 20260502014351 | 14 | 345 | 11.3 | 24.1 | 0.20 | 9.02 | 8.53 | 94 | 1013.8 |
| 20260502013337 | 14 | 4 | 11.3 | 25.7 | 0.33 | 8.99 | 8.51 | 95 | 1014.0 |
| 20260502012323 | 15 | 358 | 9.7 | 25.7 | 0.36 | 8.97 | 8.48 | 94 | 1014.0 |
| 20260502011329 | 15 | 359 | 8.0 | 29.0 | 0.38 | 8.97 | 8.48 | 95 | 1014.0 |
| 20260502010339 | 15 | 326 | 9.7 | 20.9 | 0.36 | 8.94 | 8.46 | 95 | 1013.8 |
| 20260502005345 | 15 | 24 | 6.4 | 16.1 | 0.38 | 8.92 | 8.43 | 95 | 1013.4 |
| 20260502004330 | 15 | 360 | 9.7 | 25.7 | 0.36 | 8.81 | 8.33 | 95 | 1013.5 |
| 20260502003357 | 15 | 321 | 6.4 | 16.1 | 0.23 | 8.64 | 8.15 | 95 | 1013.8 |
| 20260502002344 | 15 | 316 | 4.8 | 16.1 | 0.28 | 8.61 | 8.13 | 95 | 1014.4 |
| 20260502001329 | 15 | 324 | 4.8 | 17.7 | 0.43 | 8.59 | 8.10 | 95 | 1013.1 |
| 20260502000356 | 16 | 345 | 8.0 | 20.9 | 0.66 | 8.59 | 8.10 | 95 | 1012.8 |
| 20260501235339 | 16 | 29 | 6.4 | 19.3 | 0.61 | 8.53 | 8.05 | 95 | 1012.9 |
| 20260501234324 | 16 | 350 | 8.0 | 17.7 | 0.56 | 8.46 | 7.98 | 95 | 1013.4 |
| 20260501233331 | 16 | 42 | 9.7 | 22.5 | 0.56 | 8.41 | 7.92 | 95 | 1013.3 |
| 20260501232332 | 16 | 22 | 4.8 | 17.7 | 0.64 | 8.33 | 7.85 | 95 | 1013.4 |
| 20260501231356 | 16 | 356 | 6.4 | 17.7 | 0.46 | 8.15 | 7.67 | 95 | 1012.5 |
| 20260501230339 | 16 | 316 | 4.8 | 17.7 | 0.23 | 7.92 | 7.44 | 95 | 1012.8 |
| 20260501225324 | 16 | 53 | 4.8 | 12.9 | 0.23 | 7.92 | 7.44 | 95 | 1011.0 |
| 20260501224350 | 16 | 40 | 3.2 | 20.9 | 0.23 | 7.90 | 7.42 | 95 | 1010.4 |
| 20260501223334 | 16 | 15 | 4.8 | 24.1 | 0.15 | 7.82 | 7.34 | 95 | 1011.0 |
| 20260501222339 | 16 | 322 | 4.8 | 16.1 | 0.03 | 7.70 | 7.21 | 95 | 1012.0 |
| 20260501221326 | 16 | 21 | 4.8 | 17.7 | 0.05 | 7.70 | 7.21 | 95 | 1010.6 |
| 20260501220332 | 16 | 345 | 4.8 | 20.9 | 0.08 | 7.70 | 7.21 | 95 | 1010.0 |
| 20260501215339 | 16 | 263 | 3.2 | 14.5 | 0.33 | 7.70 | 7.21 | 95 | 1010.4 |
| 20260501214323 | 16 | 13 | 6.4 | 19.3 | 0.41 | 7.67 | 7.19 | 95 | 1010.8 |